Погода в Юбилейном

Россия / Республика Бурятия     53°43′35″N   110°14′01″E
темп.,
°C
ветер,
м/с
пор.,
м/с
влажн.,
%
обл.,
%
осадки,
мм/ч
давл.,
гПа
погр.,
м
4 марта, чт
чт423:00−22ююз229214 0.0 101924
02:00−25ююз119432 0.0 102220
05:00−28ю119432 0.0 102619
08:00−29юз019548 0.1 103119
11:00−23з128994 0.1 1031434
14:00−20з127895 0.1 1032731
17:00−21зюз128197 0.0 1034699
20:00−26ю228996 0.0 104022
5 марта, пт
пт523:00−29юв128726 0.0 104219
02:00−30юв128514 0.0 104419
05:00−31вюв11850 0.0 104519
08:00−31всв118412 0.0 104519
11:00−26с229196 0.0 1042194
14:00−22с229190 0.0 1038222
17:00−22с239694 0.0 1035126
20:00−27св119473 0.0 103620
6 марта, сб
сб623:00−25ссв1193100 0.0 103419
02:00−27ссв119483 0.0 103220
05:00−26св119367 0.0 103119
08:00−23с019283 0.0 103025
11:00−18з1187100 0.0 1028144
14:00−13з2388100 0.0 1027290
17:00−11зюз249089 0.0 1026345
20:00−15ююв229155 0.1 102921
7 марта, вс
вс723:00−16юв129122 0.0 102920
02:00−18всв119322 0.0 102922
05:00−19св119548 0.0 102823
08:00−18ссв119673 0.0 102727
11:00−13ссз229681 0.0 1023143
14:00−8сз119087 0.0 1021199
17:00−7з019293 0.0 101971
20:00−8ю128579 0.0 102122
8 марта, пн
пн823:00−9ююв228535 0.0 102128
02:00−8ю228668 0.0 102126
05:00−8ю2386100 0.0 102227
08:00−8ю338574 0.0 102472
11:00−3юз37810 0.0 1021555
14:00−1юз47808 0.0 1021621
17:00−2ююз37820 0.0 1020412
20:00−7ююв22820 0.0 102227